Location: Dreilärchen
(47.9312°N, 8.6113°E)
Time: 00:30:19
(UTC+00:00)

Cosmos 2237 Rocket - Pass Details

Date: 26 May 2022
Orbit: 834 x 851 km, 71.0° (Epoch: 02 July)

Event Time Altitude Azimuth Distance (km) Brightness Sun altitude
Rises 02:53:55 0° 270° (W) 3,408 4.9 -6.3°
Reaches altitude 10° 02:57:39 10° 294° (WNW) 2,479 4.4 -5.9°
Maximum altitude 03:00:39 14° 326° (NW) 2,187 4.5 -5.5°
Drops below altitude 10° 03:03:40 10° 358° (N) 2,488 5.2 -5.1°
Sets 03:07:26 0° 23° (NNE) 3,428 6.6 -4.6°
